This demonstration page uses our WeatherBlox Daily Observations layout. Learn more.

Left ArrowRight Arrow

39.95238, -75.16362

Hourly Observations for May 2, 2015

Temp ( °F °C ) Dew Point ( °F °C ) Humidity (%) Winds ( mph kmh ) Pressure ( in mb ) Visibility ( mi km ) Precip ( " mm )
12:54 am 00:54 Clear 49 9.4 38 3.3 66 66 SE 3 6 29.98 1015 10 16 0.00 0.00
1:54 am 01:54 Clear 49 9.4 38 3.3 66 66 Calm 29.98 1015 10 16 0.00 0.00
2:54 am 02:54 Clear 49 9.4 39 3.9 69 69 Calm 29.98 1015 10 16 0.00 0.00
3:54 am 03:54 Partly Cloudy 49 9.4 39 3.9 69 69 Calm 29.98 1015 10 16 0.00 0.00
4:54 am 04:54 Mostly Cloudy 48 8.9 40 4.4 74 74 Calm 29.98 1015 10 16 0.00 0.00
5:54 am 05:54 Mostly Cloudy 49 9.4 42 5.6 77 77 Calm 29.99 1016 10 16 0.00 0.00
6:54 am 06:54 Mostly Cloudy 50 10 41 5 71 71 Calm 30.00 1016 10 16 0.00 0.00
7:54 am 07:54 Mostly Cloudy 52 11.1 42 5.6 69 69 Calm 30.01 1016 10 16 0.00 0.00
8:54 am 08:54 Partly Cloudy 55 12.8 41 5 59 59 Calm 30.02 1017 10 16 0.00 0.00
9:54 am 09:54 Mostly Sunny 57 13.9 41 5 55 55 W 6 9 30.01 1016 10 16 0.00 0.00
10:54 am 10:54 Mostly Sunny 60 15.6 43 6.1 53 53 S 8 13 30.01 1016 10 16 0.00 0.00
11:54 am 11:54 Mostly Sunny 65 18.3 45 7.2 49 49 SE 7 11 30.00 1016 10 16 0.00 0.00
12:54 pm 12:54 Partly Cloudy 68 20 44 6.7 42 42 SE 6 9 29.99 1016 10 16 0.00 0.00
1:54 pm 13:54 Partly Cloudy 70 21.1 42 5.6 37 37 SSW 6 9 29.97 1015 10 16 0.00 0.00
2:54 pm 14:54 Partly Cloudy 72 22.2 42 5.6 34 34 SE 8 13 29.96 1014 10 16 0.00 0.00
3:54 pm 15:54 Mostly Cloudy 73 22.8 43 6.1 34 34 ESE 6 9 29.94 1014 10 16 0.00 0.00
4:54 pm 16:54 Mostly Cloudy 73 22.8 41 5 32 32 S 6 9 29.93 1014 10 16 0.00 0.00
5:54 pm 17:54 Partly Cloudy 73 22.8 40 4.4 30 30 SW 5 7 29.94 1014 10 16 0.00 0.00
6:54 pm 18:54 Partly Cloudy 69 20.6 46 7.8 44 44 SSE 12 19 29.95 1014 10 16 0.00 0.00
7:54 pm 19:54 Partly Cloudy 66 18.9 45 7.2 47 47 S 9 15 29.96 1015 10 16 0.00 0.00
8:54 pm 20:54 Partly Cloudy 64 17.8 46 7.8 52 52 SSW 7 11 29.99 1016 10 16 0.00 0.00
9:54 pm 21:54 Mostly Clear 60 15.6 46 7.8 60 60 S 8 13 30.01 1016 10 16 0.00 0.00
10:54 pm 22:54 Partly Cloudy 57 13.9 44 6.7 62 62 SSW 10 17 30.03 1017 10 16 0.00 0.00
11:54 pm 23:54 Partly Cloudy 54 12.2 43 6.1 67 67 S 6 9 30.04 1017 10 16 0.00 0.00

Powered by AerisWeather